Theta_e
332 352 362 364 363 362 362 361 360 359 359 360 362 362 362 361 361 361 360 358 358 356 353 351 347 344 342 339 337 337 338 339 342 348 351 352 353 353 353 353 350 350 352
335 353 363 363 363 362 362 361 360 359 358 358 359 360 360 360 360 359 359 356 355 353 350 346 343 340 337 335 333 333 332 331 331 332 339 347 350 351 352 352 351 349 351
336 353 360 362 363 362 361 360 360 359 358 359 358 358 358 358 358 357 356 354 351 349 346 343 340 338 336 335 335 335 335 335 335 333 333 324 335 348 348 349 351 350 350
336 351 357 362 362 362 361 360 359 359 359 358 358 357 357 356 356 355 354 352 349 346 344 342 340 339 338 337 337 337 338 339 339 340 333 332 329 341 348 349 351 350 349
338 350 355 362 361 361 361 359 359 359 359 358 358 358 357 356 355 354 353 351 347 344 343 341 340 340 339 339 339 339 340 341 343 340 339 338 339 333 346 349 350 350 348
339 348 356 361 361 361 361 360 359 359 359 359 358 357 357 356 355 354 353 351 349 345 343 341 342 342 341 341 341 341 342 343 344 340 341 341 338 335 345 348 350 350 350
339 345 354 360 360 361 361 360 359 359 359 358 359 358 357 356 355 353 352 351 350 349 345 343 344 345 344 343 342 342 343 343 343 342 341 340 336 339 348 347 350 351 350
337 340 352 360 359 359 359 359 358 357 358 358 358 358 357 356 355 353 352 350 350 349 348 346 346 346 345 346 344 344 343 343 344 340 338 337 339 341 348 350 351 349 350
335 338 346 352 357 360 359 358 357 357 357 357 357 356 357 356 355 354 352 350 350 349 348 348 347 347 346 346 345 345 344 344 342 340 338 338 337 343 346 350 348 347 349
331 336 340 344 350 353 354 358 358 357 357 356 356 356 356 356 355 354 351 350 350 350 349 349 348 348 346 347 347 346 344 344 342 339 339 338 341 342 345 349 347 347 347
331 332 335 339 342 346 348 354 357 357 358 357 357 356 354 352 352 351 351 349 350 349 349 349 349 348 347 346 346 344 344 341 340 339 338 338 341 343 346 349 348 347 347
327 332 334 336 338 340 347 349 350 351 353 354 353 352 352 350 348 348 350 350 350 350 348 349 349 349 346 342 342 344 341 341 340 340 339 341 342 343 346 349 348 348 347
328 330 335 336 337 338 339 339 345 346 347 349 346 348 350 346 345 347 342 346 343 347 340 345 345 344 341 340 339 339 340 340 340 339 340 343 343 343 346 348 349 347 347
331 331 333 336 336 335 334 338 340 341 340 342 341 341 340 338 336 337 337 337 338 337 337 336 337 339 340 338 339 338 337 337 337 337 338 343 345 345 346 350 350 347 347
331 333 334 335 335 335 331 335 335 336 337 337 336 336 337 335 333 332 334 333 334 334 333 333 334 335 337 338 339 338 337 337 337 336 336 341 344 346 347 349 348 345 345
334 335 335 333 334 333 332 332 334 335 334 335 334 335 336 334 331 330 330 330 330 332 332 332 332 333 334 336 337 337 338 337 337 336 337 338 342 345 348 348 347 346 342
331 338 336 334 332 332 332 330 331 334 333 332 333 334 336 334 332 331 329 329 330 330 331 331 331 331 332 333 334 335 337 336 336 336 338 340 341 344 347 347 347 342 341
327 336 339 340 335 331 331 330 330 331 332 331 331 332 335 335 333 331 330 328 329 329 330 330 329 329 329 329 331 332 333 334 335 336 339 340 340 339 344 346 343 338 340
321 328 337 340 337 334 331 330 330 331 332 332 332 332 333 334 334 331 330 329 328 328 328 329 328 329 326 328 329 330 332 333 335 337 339 340 340 338 342 342 343 343 342
314 323 329 337 340 338 336 333 333 334 336 336 337 337 336 335 334 332 332 331 329 328 327 327 328 328 328 329 329 330 331 332 333 335 337 339 340 338 340 338 340 341 343
312 314 319 326 329 331 331 334 334 334 336 337 339 340 339 338 337 334 334 332 330 329 329 328 328 328 327 329 328 328 330 331 332 334 335 336 336 337 337 337 336 337 336
308 309 313 319 325 325 332 336 337 338 339 341 342 342 341 340 339 336 335 333 331 330 329 329 328 326 328 329 327 327 325 327 329 332 333 333 334 334 335 336 335 335 336
305 306 309 313 318 322 328 330 331 332 331 334 335 340 341 341 341 340 337 336 333 332 329 329 329 328 327 328 331 329 320 320 323 326 328 329 331 331 333 334 335 335 336
307 305 305 309 314 319 323 327 330 332 332 335 337 338 339 341 341 341 339 337 335 334 332 331 331 331 332 327 328 330 330 328 322 319 323 325 328 329 331 331 333 333 334
307 306 305 306 310 316 321 326 330 330 332 334 328 334 334 334 336 339 339 337 336 335 335 333 332 332 333 330 329 329 329 327 325 323 319 323 325 327 329 330 331 331 332
305 306 307 306 307 314 320 325 330 332 333 325 325 326 328 329 333 336 338 338 337 336 335 334 334 334 332 332 331 331 328 326 323 321 318 319 321 324 325 327 328 329 330
Wind_Speed
8 16 22 20 22 22 21 19 18 18 18 19 20 19 20 19 18 17 17 16 15 14 13 12 11 10 9 8 8 8 8 8 7 7 7 7 7 6 7 8 7 6 8
14 18 23 22 23 23 23 21 19 18 18 18 19 18 18 18 17 16 16 16 15 14 13 12 10 9 8 8 7 7 7 7 6 5 5 5 5 4 4 5 7 7 8
19 18 19 23 23 23 23 22 21 19 18 17 17 17 17 17 17 16 16 15 15 15 14 12 11 10 9 9 9 8 7 7 5 4 4 2 2 2 2 2 6 8 8
21 19 17 23 24 24 24 23 21 21 20 19 18 17 17 17 16 16 15 15 15 14 14 13 12 11 9 8 8 8 7 6 5 5 2 1 2 1 1 1 6 6 7
17 15 16 22 23 24 24 23 22 21 21 21 20 19 18 18 17 16 15 14 14 14 13 12 11 11 9 8 7 7 6 6 5 4 2 2 2 3 2 2 4 5 6
17 15 18 21 21 22 23 23 23 22 22 22 21 20 19 18 17 16 15 14 13 13 13 12 10 9 9 8 7 6 6 5 4 3 3 4 4 5 6 4 5 5 6
17 15 17 22 22 21 21 23 23 23 22 22 21 21 20 18 17 16 16 15 14 12 12 12 10 8 7 7 6 5 5 3 3 1 3 4 6 4 7 5 6 7 7
15 11 12 22 21 21 20 20 22 23 22 22 21 21 20 19 18 16 15 14 13 12 11 11 10 9 7 6 5 4 3 2 2 1 2 3 5 5 7 7 6 5 7
9 8 7 10 16 20 18 18 19 20 21 21 21 20 20 19 18 16 15 14 13 12 11 12 11 10 9 7 6 5 3 3 2 1 1 1 5 6 10 9 8 7 7
6 7 6 6 10 12 11 15 14 16 17 18 19 19 18 17 16 15 14 13 13 12 12 12 12 12 10 9 8 6 5 5 2 3 2 2 6 8 11 10 9 8 8
4 4 5 6 6 7 8 9 11 15 14 14 14 15 13 7 9 11 11 14 13 12 12 12 12 12 11 10 9 9 8 2 3 3 2 4 6 7 9 10 9 8 8
5 3 3 5 6 7 8 8 7 6 6 7 7 7 7 9 7 7 9 13 13 13 12 12 11 12 11 4 4 8 3 4 3 4 3 7 6 8 10 11 11 9 8
4 4 6 5 4 8 7 4 3 3 4 4 5 5 8 6 4 4 3 3 3 9 3 6 5 4 5 4 5 4 5 4 3 4 5 8 7 9 12 15 14 11 9
7 6 6 6 5 6 3 7 6 5 4 4 5 6 4 3 3 2 3 3 4 3 4 4 2 3 4 5 6 6 6 5 4 4 6 10 8 11 14 16 14 10 9
13 13 12 9 7 6 5 4 5 6 5 5 4 5 5 5 4 3 3 3 3 3 4 4 4 4 5 6 6 7 7 7 6 4 4 11 10 12 15 17 13 11 10
10 12 16 16 12 7 8 6 7 6 6 5 5 6 8 6 6 6 5 6 5 5 4 4 5 5 5 6 7 8 9 7 6 6 5 6 11 11 14 15 11 9 3
10 6 10 16 16 14 12 8 6 7 7 8 10 12 14 11 8 8 6 6 7 6 6 4 4 4 4 5 8 7 7 8 5 7 6 6 6 12 13 12 9 6 9
6 10 8 9 11 13 15 10 6 6 7 9 7 6 11 13 12 10 8 7 6 6 6 5 4 4 5 5 5 6 6 5 6 7 6 6 6 4 6 10 13 13 14
8 7 8 11 13 15 13 8 8 9 6 7 5 4 9 9 12 9 7 6 7 5 6 6 4 5 4 5 6 5 5 4 5 5 8 7 6 4 4 10 14 14 16
9 6 4 6 9 12 7 6 4 5 7 6 6 6 7 9 11 10 7 6 7 5 5 5 5 5 3 5 4 4 3 5 5 5 6 5 6 7 6 6 5 7 15
10 10 9 5 7 2 3 6 3 10 9 7 8 10 11 10 10 10 7 8 8 9 8 8 5 6 4 3 2 3 3 5 7 5 4 5 6 6 4 6 5 5 6
9 11 10 8 7 6 5 6 6 6 6 7 7 8 10 11 11 9 9 8 10 6 7 8 7 3 4 6 4 1 2 2 3 3 3 4 5 3 6 7 8 8 6
5 9 9 10 9 7 9 3 2 2 3 3 4 6 11 12 9 10 10 9 9 8 8 9 9 9 6 4 6 3 2 4 1 1 2 3 5 4 5 5 5 5 5
7 7 9 10 9 10 8 8 13 13 12 12 11 7 8 10 10 10 10 10 9 8 8 9 9 9 5 5 1 3 1 3 3 1 1 2 2 4 4 3 4 5 5
9 8 8 9 9 12 9 11 11 13 12 9 4 6 6 7 8 11 11 10 9 7 8 9 9 9 6 5 4 3 2 1 1 2 3 2 1 2 3 3 3 3 5
8 7 7 8 9 10 8 10 14 15 13 6 5 6 5 4 6 7 7 8 8 8 9 8 9 10 8 4 4 4 4 4 3 3 2 2 2 1 2 3 3 4 3
Wind_Direction
176 161 169 164 154 148 145 144 139 134 130 129 127 129 130 134 137 136 139 142 145 149 147 142 138 135 134 125 114 106 100 93 87 88 89 90 97 123 138 120 123 130 136
138 160 169 167 157 152 149 148 144 141 136 134 132 135 136 138 140 142 146 152 153 155 149 148 147 142 136 129 120 108 98 93 84 80 79 61 75 89 129 158 150 139 142
149 160 169 167 161 155 152 150 151 147 143 139 139 139 141 143 148 152 155 159 157 160 156 153 151 150 147 136 122 108 99 92 81 74 75 61 28 54 69 148 175 160 151
151 159 167 173 164 159 156 154 153 153 149 147 148 151 150 153 158 159 160 162 164 164 159 161 159 152 144 131 118 108 98 88 74 56 58 52 315 310 81 126 165 164 161
147 158 165 176 168 162 158 157 157 157 152 154 156 159 160 163 164 165 165 167 167 168 166 167 161 150 146 138 127 116 103 74 54 47 359 350 310 264 212 211 191 174 162
150 158 168 176 172 166 162 160 162 159 158 160 161 163 166 168 168 171 169 174 173 173 171 170 164 157 155 149 143 133 107 85 59 18 337 339 333 236 220 216 218 196 175
157 162 170 175 173 169 170 166 166 163 163 164 166 167 170 174 174 176 174 177 176 179 177 174 169 164 167 162 164 137 120 98 115 13 329 339 347 238 211 224 231 204 190
152 156 177 175 174 170 174 175 170 168 169 170 171 173 173 177 177 181 180 180 179 180 182 179 174 169 173 171 182 169 148 164 116 189 334 328 330 287 227 226 239 218 205
135 140 168 188 177 169 176 184 178 174 173 177 176 178 178 178 180 184 183 182 184 184 186 184 179 177 179 185 197 207 201 239 172 254 288 303 300 302 239 232 232 236 225
122 141 169 182 187 167 172 184 185 180 180 181 184 183 182 180 182 186 186 187 189 189 190 189 184 184 184 191 200 219 226 248 255 253 250 262 297 293 242 232 234 235 236
125 153 164 193 171 163 150 177 185 189 190 192 191 191 182 182 182 192 192 192 193 195 198 196 193 191 189 195 205 221 233 212 234 258 260 264 281 285 246 237 230 231 233
192 187 216 209 175 155 167 169 164 180 191 194 195 196 195 188 187 178 194 201 200 204 202 201 199 198 201 186 211 224 219 221 228 250 253 258 261 262 254 243 239 235 235
199 191 191 218 207 178 173 151 164 174 169 197 189 172 205 199 185 164 160 194 193 215 202 210 202 196 194 193 205 210 228 230 229 247 257 255 254 255 261 246 238 230 237
192 193 184 200 204 208 174 177 175 177 177 198 187 175 173 163 182 167 168 192 188 191 195 204 191 188 208 212 209 212 225 232 237 247 253 257 250 253 257 245 241 237 243
195 188 194 178 191 200 215 182 172 183 180 190 185 181 172 171 171 159 178 197 208 192 198 198 192 195 209 212 220 224 230 234 237 248 254 259 254 252 253 244 240 246 252
221 216 182 189 190 184 199 212 191 180 180 184 178 191 185 193 176 180 184 204 214 202 197 201 191 201 216 209 220 223 236 234 231 232 247 252 252 251 255 239 233 236 206
230 192 207 200 179 187 204 203 206 199 183 203 203 195 190 192 188 184 194 201 214 197 185 196 197 188 213 219 229 226 230 240 234 236 235 244 249 246 240 232 203 210 193
238 211 192 201 192 203 199 200 219 207 208 228 232 207 214 196 182 185 198 205 198 190 189 190 186 198 213 216 230 232 228 233 239 235 235 236 237 237 256 205 196 199 231
274 242 212 189 193 196 201 196 195 219 213 219 203 215 211 222 188 183 193 196 174 187 190 186 183 197 192 218 232 235 233 241 244 240 239 235 233 210 211 216 223 224 227
303 278 222 231 213 195 189 197 182 209 217 214 217 215 214 203 186 176 189 173 176 181 191 182 181 186 188 210 227 245 234 239 242 232 246 246 236 219 217 225 244 243 241
325 323 296 194 226 171 162 174 192 214 224 213 212 205 205 198 182 185 183 178 180 192 198 185 164 181 196 158 105 277 263 243 239 232 233 236 238 236 221 228 230 243 249
302 310 309 284 258 196 214 213 189 198 215 229 222 211 196 190 190 179 184 183 194 188 179 177 173 162 167 183 156 172 299 294 252 230 230 234 243 258 260 240 225 226 227
282 292 297 286 281 238 216 171 87 94 126 151 204 205 203 188 191 189 189 183 186 188 192 184 184 181 175 182 202 156 149 229 308 0 260 255 251 237 243 243 241 234 227
287 259 274 283 277 272 232 216 213 221 224 228 232 199 178 182 198 191 187 187 184 191 195 191 182 189 149 166 162 227 246 158 179 226 267 267 247 238 242 237 247 254 240
288 284 273 272 272 264 249 217 223 228 234 235 167 184 180 184 191 190 185 174 195 189 194 178 173 188 189 152 157 153 159 163 79 141 233 268 302 245 254 252 241 255 250
287 281 274 280 268 259 250 232 225 229 224 203 190 193 182 174 188 185 172 185 186 185 188 185 179 189 180 180 156 158 156 168 182 157 169 213 241 311 277 259 246 237 231